Regional Weather Roundup
Issued by NWS Upton, NY

Current Version | Previous Version | Text Only | Print | Product List | Glossary On
Versions: 1 2 3 4 5 6 7 8 9 10 11 12 13 14 15 16 17 18 19 20 21 22 23 24 25 26 27 28 29 30 31 32 33 34 35 36 37 38 39 40 41 42 43 44 45 46 47 48 49 50
000
ASUS41 KOKX 292004
RWROKX

REGIONAL WEATHER ROUNDUP
NATIONAL WEATHER SERVICE NEW YORK NY
400 PM EDT SAT AUG 29 2015

NOTE: "FAIR" INDICATES FEW OR NO CLOUDS BELOW 12,000 FEET WITH NO
SIGNIFICANT WEATHER AND/OR OBSTRUCTIONS TO VISIBILITY.

NYZ071-072-176-178-NJZ106-104-292100-
NEW YORK CITY METRO AREA


CITY           SKY/WX    TMP DP  RH WIND       PRES   REMARKS
CENTRAL PARK   MOSUNNY   87  54  32 CALM      30.14F
LAGUARDIA APRT PTSUNNY   84  58  40 S16       30.11F
KENNEDY INTL   PTSUNNY   82  60  47 S14       30.14F
NEWARK/LIBERTY PTSUNNY   83  60  45 SE13      30.11F
BRNX BOT. GARD   N/A     84  55  37 SW9       30.13F
TETERBORO      MOSUNNY   86  56  35 S13G18    30.10F
$$

NYZ177-179-078>081-292100-
LONG ISLAND NEW YORK

CITY           SKY/WX    TMP DP  RH WIND       PRES   REMARKS
FARMINGDALE    PTSUNNY   82  59  45 S15       30.13F
ISLIP          PTSUNNY   80  59  48 SW13      30.12F
SHIRLEY        SUNNY     80  59  48 S13       30.14F
WESTHAMPTON    SUNNY     81  56  42 SW14G20   30.15F
MONTAUK POINT    N/A     78  62  57 S7        30.15F
$$

NYZ052-065-067-292100-
HUDSON VALLEY

CITY           SKY/WX    TMP DP  RH WIND       PRES   REMARKS
WHITE PLAINS   MOSUNNY   82  55  39 E8        30.12F
NEWBURGH       MOSUNNY   81  59  47 CALM      30.13F
MONTGOMERY     MOSUNNY   82  59  45 W9        30.11F
POUGHKEEPSIE   MOSUNNY   83  56  39 S5        30.10F
ALBANY         PTSUNNY   79  58  48 S9        30.11F
$$

NJZ001-105-106-008-010-013-015-019>022-104-292100-
NEW JERSEY

CITY           SKY/WX    TMP DP  RH WIND       PRES   REMARKS
NEWARK/LIBERTY PTSUNNY   83  60  45 SE13      30.11F
TETERBORO      MOSUNNY   86  56  35 S13G18    30.10F
CALDWELL       PTSUNNY   85  55  35 W9G18     30.11F
MORRISTOWN     PTSUNNY   88  57  35 W8        30.12F
SOMERVILLE     MOSUNNY   86  58  38 NW5       30.10F
SUSSEX         MOSUNNY   82  60  47 VRB5      30.12F
ANDOVER          N/A     81  63  54 SW7       30.13F
TRENTON        SUNNY     84  59  42 SW3       30.12F
MILLVILLE      SUNNY     84  62  47 VRB7      30.15S
ATLANTIC CITY  MOSUNNY   81  61  50 S13       30.14F
WRIGHTSTOWN    SUNNY     85  61  43 SW7       30.10F
TOMS RIVER     MOSUNNY   82  61  47 SE10      30.14S
BELMAR         SUNNY     81  59  47 SE8       30.14S
$$

PAZ047>061-062-071-292100-
EASTERN PENNSYLVANIA

CITY           SKY/WX    TMP DP  RH WIND       PRES   REMARKS
PHILADELPHIA   MOSUNNY   86  59  39 MISG      30.13F
ALLENTOWN      MOSUNNY   83  60  45 SW12      30.12F
SCRANTON       PTSUNNY   83  61  47 SW6       30.12F
$$

CTZ002-004>006-009-010-012-RIZ004-006-007-MAZ004-011-015-292100-
SOUTHERN NEW ENGLAND
 IN CT

CITY           SKY/WX    TMP DP  RH WIND       PRES   REMARKS
BRADLEY INTL   PTSUNNY   82  55  39 W8        30.11F
HARTFORD       MOSUNNY   83  55  38 VRB7      30.11F
DANBURY        SUNNY     80  55  42 CALM      30.14F
WTRBRY/OXFORD  NOT AVBL
BRIDGEPORT     SUNNY     81  58  45 S10       30.12F
MERIDEN        SUNNY     84  54  35 W7G17     30.11F
NEW HAVEN      PTSUNNY   79  58  48 SW10      30.12F
CHESTER        NOT AVBL
GROTON         SUNNY     78  60  53 SW13      30.12F
WILLIMANTIC    MOSUNNY   81  55  40 SW8       30.11F

 IN RI

CITY           SKY/WX    TMP DP  RH WIND       PRES   REMARKS
PROVIDENCE     MOSUNNY   81  55  40 W10       30.11F
BLOCK ISLAND   SUNNY     77  63  61 SW12      30.14F
WESTERLY       SUNNY     79  56  45 SW10      30.14F

 IN MA

CITY           SKY/WX    TMP DP  RH WIND       PRES   REMARKS
BOSTON         PTSUNNY   81  54  39 SW8       30.10F
WORCESTER      MOSUNNY   75  53  46 W7        30.15F
WESTFIELD      MOSUNNY   80  55  42 VRB7      30.11F
PROVINCETOWN   PTSUNNY   79  55  44 SW15      30.12F
NANTUCKET      PTSUNNY   76  67  73 SW10      30.15F
$$

ANZ330-335-338-340-345-350-353-355-292100-
COASTAL MARINE OBSERVATIONS


STATION/POSITION TIME  SKY/WX   TEMP    WIND        PRES    VSBY  WAVE
                                AIR SEA DIR/SP/G                  HT/PER
                 (UTC)          (F)     (DEG/KT/KT) (MB)    (MI)  (FT/S)
NY HARB ENTRANCE 1850            76 77  160/ 12/ 12 1021.0          2/10
4S FIRE IS       NOT AVBL
20S FIRE ISLAND  1850            75 77  200/  6/  8 1021.4          3/11
GREAT SOUTH BAY  1900            75 79  220/ 12/ 14   N/A
23SW MTP         1950            74 74  220/  8/  8 1020.6          2/11
HUDSON CANYON    NOT AVBL
KINGS POINT      NOT AVBL
EXECUTION ROCKS  1900            79      80/  4/  8   N/A
CENTRAL LI SOUND NOT AVBL
EASTERN LI SOUND 1900            74 70  250/ 10/ 12   N/A
ROBBINS REEF     NOT AVBL
$$


>>>>>>>>>>>>>>>>>>>>>>>>>>>> KEY <<<<<<<<<<<<<<<<<<<<<<<<<<<
>                                                          <
>     SKY/WX - SKY CONDITION/PRESENT WEATHER               <
>     TMP    - TEMPERATURE IN FAHRENHEIT                   <
>     DP     - DEWPOINT IN FAHRENHEIT                      <
>     RH     - RELATIVE HUMIDITY IN PERCENT                <
>     WIND   - DIRECTION AND SPEED IN MPH                  <
>     PRES   - MEAN SEA LEVEL PRESSURE IN INCHES OF HG     <
>     WCI    - WIND CHILL INDEX                            <
>     VSB    - VISIBILITY IN MILES                         <
>     HX     - HEAT INDEX                                  <
>     TC     - TEMPERATURE IN CELSIUS                      <
>     VRB    - VARIABLE WIND DIRECTION                     <
>                                                          <
>>>>>>>>>>>>>>>>>>>>>>>>>>>> KEY <<<<<<<<<<<<<<<<<<<<<<<<<<<




USA.gov is the U.S. government's official web portal to all federal, state and local government web resources and services.